Time,TemperatureF,DewpointF,PressureIn,WindDirection,WindDirectionDegrees,WindSpeedMPH,WindSpeedGustMPH,Humidity,HourlyPrecipIn,Conditions,Clouds,dailyrainin,SoftwareType,DateUTC
2013-04-29 00:05:00,37.2,35.1,27.70,WNW,299,0.0,0.0,92,0.00,,---,0.00,VWS V14.01,2013-04-29 05:05:00,
2013-04-29 00:10:00,36.9,34.8,27.70,WNW,299,0.0,0.0,92,0.00,,---,0.00,VWS V14.01,2013-04-29 05:10:00,
2013-04-29 00:15:00,36.9,35.1,27.69,WNW,299,0.0,0.0,93,0.00,,---,0.00,VWS V14.01,2013-04-29 05:15:00,
2013-04-29 00:20:00,37.3,35.7,27.69,WNW,299,0.0,0.0,94,0.00,,---,0.00,VWS V14.01,2013-04-29 05:20:00,
2013-04-29 00:25:00,37.7,36.4,27.69,WNW,299,0.0,0.0,95,0.00,,---,0.00,VWS V14.01,2013-04-29 05:25:00,
2013-04-29 00:30:00,37.7,36.1,27.69,WNW,299,0.0,0.0,94,0.00,,---,0.00,VWS V14.01,2013-04-29 05:30:00,
2013-04-29 00:36:00,37.7,36.4,27.69,WNW,299,0.0,0.0,95,0.00,,---,0.00,VWS V14.01,2013-04-29 05:36:00,
2013-04-29 00:41:00,37.6,36.0,27.69,WNW,299,0.0,0.0,94,0.00,,---,0.00,VWS V14.01,2013-04-29 05:41:00,
2013-04-29 00:46:00,37.3,35.5,27.69,WNW,299,0.0,0.0,93,0.00,,---,0.00,VWS V14.01,2013-04-29 05:46:00,
2013-04-29 00:51:00,37.0,35.2,27.69,WNW,299,0.0,0.0,93,0.00,,---,0.00,VWS V14.01,2013-04-29 05:51:00,
2013-04-29 00:56:00,36.9,35.1,27.69,WNW,299,0.0,0.0,93,0.00,,---,0.00,VWS V14.01,2013-04-29 05:56:00,
2013-04-29 01:02:00,36.8,35.0,27.70,WNW,299,0.0,0.0,93,0.00,,---,0.00,VWS V14.01,2013-04-29 06:02:00,
2013-04-29 01:07:00,36.8,35.0,27.70,WNW,299,0.0,0.0,93,0.00,,---,0.00,VWS V14.01,2013-04-29 06:07:00,
2013-04-29 01:12:00,37.4,35.8,27.70,WNW,299,0.0,0.0,94,0.00,,---,0.00,VWS V14.01,2013-04-29 06:12:00,
2013-04-29 01:17:00,38.0,36.7,27.70,WNW,299,0.0,0.0,95,0.00,,---,0.00,VWS V14.01,2013-04-29 06:17:00,
2013-04-29 01:22:00,38.1,36.8,27.70,WNW,299,0.0,0.0,95,0.00,,---,0.00,VWS V14.01,2013-04-29 06:22:00,
2013-04-29 01:27:00,38.6,37.3,27.70,WNW,299,0.0,0.0,95,0.00,,---,0.00,VWS V14.01,2013-04-29 06:27:00,
2013-04-29 01:32:00,39.2,37.9,27.71,WNW,299,0.0,0.0,95,0.00,,---,0.00,VWS V14.01,2013-04-29 06:32:00,
2013-04-29 01:38:00,39.5,38.5,27.71,WNW,299,0.0,0.0,96,0.00,,---,0.00,VWS V14.01,2013-04-29 06:38:00,
2013-04-29 01:43:00,39.6,38.6,27.71,WNW,299,0.0,0.0,96,0.00,,---,0.00,VWS V14.01,2013-04-29 06:43:00,
2013-04-29 01:48:00,39.9,38.8,27.71,WNW,299,0.0,0.0,96,0.00,,---,0.00,VWS V14.01,2013-04-29 06:48:00,
2013-04-29 01:53:00,39.9,38.8,27.71,WNW,299,0.0,0.0,96,0.00,,---,0.00,VWS V14.01,2013-04-29 06:53:00,
2013-04-29 01:58:00,39.5,38.5,27.71,WNW,299,0.0,0.0,96,0.00,,---,0.00,VWS V14.01,2013-04-29 06:58:00,
2013-04-29 02:03:00,39.1,38.1,27.71,WNW,299,0.0,0.0,96,0.00,,---,0.00,VWS V14.01,2013-04-29 07:03:00,
2013-04-29 02:08:00,38.7,37.4,27.71,WNW,299,0.0,0.0,95,0.00,,---,0.00,VWS V14.01,2013-04-29 07:08:00,
2013-04-29 02:13:00,38.6,37.3,27.71,WNW,299,0.0,0.0,95,0.00,,---,0.00,VWS V14.01,2013-04-29 07:13:00,
2013-04-29 02:19:00,38.7,37.4,27.72,WNW,299,0.0,0.0,95,0.00,,---,0.00,VWS V14.01,2013-04-29 07:19:00,
2013-04-29 02:24:00,38.4,37.1,27.72,WNW,299,0.0,0.0,95,0.00,,---,0.00,VWS V14.01,2013-04-29 07:24:00,
2013-04-29 02:29:00,38.5,37.2,27.72,WNW,299,0.0,1.0,95,0.00,,---,0.00,VWS V14.01,2013-04-29 07:29:00,
2013-04-29 02:35:00,38.7,37.7,27.72,WNW,299,0.0,0.0,96,0.00,,---,0.00,VWS V14.01,2013-04-29 07:35:00,
2013-04-29 02:40:00,38.5,37.5,27.72,WNW,299,0.0,0.0,96,0.00,,---,0.00,VWS V14.01,2013-04-29 07:40:00,
2013-04-29 02:45:00,38.2,37.2,27.72,WNW,299,0.0,0.0,96,0.00,,---,0.00,VWS V14.01,2013-04-29 07:45:00,
2013-04-29 02:50:00,37.6,36.3,27.72,WNW,299,0.0,0.0,95,0.00,,---,0.00,VWS V14.01,2013-04-29 07:50:00,
2013-04-29 02:55:00,37.3,36.0,27.72,WNW,299,0.0,0.0,95,0.00,,---,0.00,VWS V14.01,2013-04-29 07:55:00,
2013-04-29 03:00:00,37.1,35.8,27.73,WNW,299,0.0,0.0,95,0.00,,---,0.00,VWS V14.01,2013-04-29 08:00:00,
2013-04-29 03:05:00,36.9,35.6,27.73,WNW,299,0.0,0.0,95,0.00,,---,0.00,VWS V14.01,2013-04-29 08:05:00,
2013-04-29 03:10:00,37.0,35.7,27.73,WNW,299,0.0,0.0,95,0.00,,---,0.00,VWS V14.01,2013-04-29 08:10:00,
2013-04-29 03:16:00,37.0,35.7,27.73,WNW,299,0.0,0.0,95,0.00,,---,0.00,VWS V14.01,2013-04-29 08:16:00,
2013-04-29 03:21:00,37.1,35.8,27.73,WNW,299,0.0,0.0,95,0.00,,---,0.00,VWS V14.01,2013-04-29 08:21:00,
2013-04-29 03:26:00,36.8,35.5,27.73,WNW,299,0.0,0.0,95,0.00,,---,0.00,VWS V14.01,2013-04-29 08:26:00,
2013-04-29 03:31:00,36.6,35.3,27.74,WNW,299,0.0,1.0,95,0.00,,---,0.00,VWS V14.01,2013-04-29 08:31:00,
2013-04-29 03:36:00,36.6,35.3,27.74,WNW,299,0.0,1.0,95,0.00,,---,0.00,VWS V14.01,2013-04-29 08:36:00,
2013-04-29 03:41:00,36.3,35.0,27.74,WNW,299,0.0,0.0,95,0.00,,---,0.00,VWS V14.01,2013-04-29 08:41:00,
2013-04-29 03:46:00,35.8,34.2,27.74,WNW,299,0.0,0.0,94,0.00,,---,0.00,VWS V14.01,2013-04-29 08:46:00,
2013-04-29 03:52:00,35.0,32.9,27.74,WNW,299,0.0,0.0,92,0.00,,---,0.00,VWS V14.01,2013-04-29 08:52:00,
2013-04-29 03:57:00,33.8,31.7,27.74,WNW,299,0.0,0.0,92,0.00,,---,0.00,VWS V14.01,2013-04-29 08:57:00,
2013-04-29 04:02:00,33.4,31.3,27.74,WNW,299,0.0,0.0,92,0.00,,---,0.00,VWS V14.01,2013-04-29 09:02:00,
2013-04-29 04:07:00,33.4,31.6,27.74,WNW,299,0.0,0.0,93,0.00,,---,0.00,VWS V14.01,2013-04-29 09:07:00,
2013-04-29 04:12:00,33.6,32.1,27.74,WNW,299,0.0,0.0,94,0.00,,---,0.00,VWS V14.01,2013-04-29 09:12:00,
2013-04-29 04:17:00,33.7,32.4,27.75,WNW,299,0.0,0.0,95,0.00,,---,0.00,VWS V14.01,2013-04-29 09:17:00,
2013-04-29 04:23:00,33.4,31.9,27.75,WNW,299,0.0,0.0,94,0.00,,---,0.00,VWS V14.01,2013-04-29 09:23:00,
2013-04-29 04:28:00,33.2,31.7,27.75,WNW,299,0.0,0.0,94,0.00,,---,0.00,VWS V14.01,2013-04-29 09:28:00,
2013-04-29 04:33:00,33.1,31.6,27.75,WNW,299,0.0,0.0,94,0.00,,---,0.00,VWS V14.01,2013-04-29 09:33:00,
2013-04-29 04:38:00,32.7,31.2,27.75,WNW,299,0.0,0.0,94,0.00,,---,0.00,VWS V14.01,2013-04-29 09:38:00,
2013-04-29 04:43:00,31.7,29.9,27.75,WNW,299,0.0,0.0,93,0.00,,---,0.00,VWS V14.01,2013-04-29 09:43:00,
2013-04-29 04:48:00,30.7,28.7,27.75,WNW,299,0.0,0.0,92,0.00,,---,0.00,VWS V14.01,2013-04-29 09:48:00,
2013-04-29 04:53:00,30.3,28.5,27.75,WNW,299,0.0,0.0,93,0.00,,---,0.00,VWS V14.01,2013-04-29 09:53:00,
2013-04-29 04:59:00,30.3,28.5,27.75,WNW,299,0.0,0.0,93,0.00,,---,0.00,VWS V14.01,2013-04-29 09:59:00,
2013-04-29 05:04:00,30.5,29.0,27.75,WNW,299,0.0,0.0,94,0.00,,---,0.00,VWS V14.01,2013-04-29 10:04:00,
2013-04-29 05:09:00,30.6,29.1,27.75,WNW,299,0.0,0.0,94,0.00,,---,0.00,VWS V14.01,2013-04-29 10:09:00,
2013-04-29 05:14:00,30.6,29.1,27.75,WNW,299,0.0,0.0,94,0.00,,---,0.00,VWS V14.01,2013-04-29 10:14:00,
2013-04-29 05:19:00,30.3,28.8,27.76,WNW,299,0.0,0.0,94,0.00,,---,0.00,VWS V14.01,2013-04-29 10:19:00,
2013-04-29 05:24:00,30.1,28.3,27.76,WNW,299,0.0,0.0,93,0.00,,---,0.00,VWS V14.01,2013-04-29 10:24:00,
2013-04-29 05:29:00,30.0,28.2,27.76,WNW,299,0.0,0.0,93,0.00,,---,0.00,VWS V14.01,2013-04-29 10:29:00,
2013-04-29 05:35:00,29.7,27.9,27.77,WNW,299,0.0,0.0,93,0.00,,---,0.00,VWS V14.01,2013-04-29 10:35:00,
2013-04-29 05:40:00,29.4,27.6,27.77,WNW,299,0.0,0.0,93,0.00,,---,0.00,VWS V14.01,2013-04-29 10:40:00,
2013-04-29 05:45:00,29.4,27.6,27.77,WNW,299,0.0,0.0,93,0.00,,---,0.00,VWS V14.01,2013-04-29 10:45:00,
2013-04-29 05:50:00,29.5,28.0,27.77,WNW,299,0.0,0.0,94,0.00,,---,0.00,VWS V14.01,2013-04-29 10:50:00,
2013-04-29 05:55:00,29.7,28.2,27.77,WNW,299,0.0,0.0,94,0.00,,---,0.00,VWS V14.01,2013-04-29 10:55:00,
2013-04-29 06:01:00,29.5,28.0,27.77,WNW,299,0.0,0.0,94,0.00,,---,0.00,VWS V14.01,2013-04-29 11:01:00,
2013-04-29 06:06:00,29.1,27.3,27.77,WNW,299,0.0,0.0,93,0.00,,---,0.00,VWS V14.01,2013-04-29 11:06:00,
2013-04-29 06:11:00,28.8,27.0,27.77,WNW,299,0.0,0.0,93,0.00,,---,0.00,VWS V14.01,2013-04-29 11:11:00,
2013-04-29 06:16:00,28.8,27.0,27.77,WNW,299,0.0,0.0,93,0.00,,---,0.00,VWS V14.01,2013-04-29 11:16:00,
2013-04-29 06:21:00,29.0,27.5,27.77,WNW,299,0.0,0.0,94,0.00,,---,0.00,VWS V14.01,2013-04-29 11:21:00,
2013-04-29 06:26:00,29.3,27.8,27.77,WNW,299,0.0,0.0,94,0.00,,---,0.00,VWS V14.01,2013-04-29 11:26:00,
2013-04-29 06:31:00,29.7,28.2,27.77,WNW,299,0.0,0.0,94,0.00,,---,0.00,VWS V14.01,2013-04-29 11:31:00,
2013-04-29 06:36:00,29.8,28.3,27.77,WNW,299,0.0,0.0,94,0.00,,---,0.00,VWS V14.01,2013-04-29 11:36:00,
2013-04-29 06:42:00,30.2,28.7,27.77,WNW,299,0.0,0.0,94,0.00,,---,0.00,VWS V14.01,2013-04-29 11:42:00,
2013-04-29 06:47:00,30.9,29.4,27.78,WNW,299,0.0,0.0,94,0.00,,---,0.00,VWS V14.01,2013-04-29 11:47:00,
2013-04-29 06:52:00,31.9,30.6,27.78,WNW,299,1.0,2.0,95,0.00,,---,0.00,VWS V14.01,2013-04-29 11:52:00,
2013-04-29 06:58:00,32.6,31.1,27.78,WNW,299,0.0,0.0,94,0.00,,---,0.00,VWS V14.01,2013-04-29 11:58:00,
2013-04-29 07:03:00,33.2,31.7,27.77,WNW,299,0.0,0.0,94,0.00,,---,0.00,VWS V14.01,2013-04-29 12:03:00,
2013-04-29 07:08:00,33.7,31.9,27.77,WNW,299,0.0,0.0,93,0.00,,---,0.00,VWS V14.01,2013-04-29 12:08:00,
2013-04-29 07:13:00,34.4,32.6,27.77,WNW,300,0.0,0.0,93,0.00,,---,0.00,VWS V14.01,2013-04-29 12:13:00,
2013-04-29 07:18:00,35.2,33.4,27.78,WNW,299,0.0,0.0,93,0.00,,---,0.00,VWS V14.01,2013-04-29 12:18:00,
2013-04-29 07:23:00,36.3,33.7,27.78,WNW,300,0.0,0.0,90,0.00,,---,0.00,VWS V14.01,2013-04-29 12:23:00,
2013-04-29 07:28:00,37.6,33.5,27.78,WNW,300,0.0,2.0,85,0.00,,---,0.00,VWS V14.01,2013-04-29 12:28:00,
2013-04-29 07:33:00,38.6,33.9,27.78,WNW,300,1.0,1.0,83,0.00,,---,0.00,VWS V14.01,2013-04-29 12:33:00,
2013-04-29 07:39:00,39.2,33.6,27.78,WNW,300,2.0,2.0,80,0.00,,---,0.00,VWS V14.01,2013-04-29 12:39:00,
2013-04-29 07:44:00,39.6,33.3,27.78,WNW,301,0.0,0.0,78,0.00,,---,0.00,VWS V14.01,2013-04-29 12:44:00,
2013-04-29 07:49:00,40.4,34.1,27.78,WNW,300,0.0,0.0,78,0.00,,---,0.00,VWS V14.01,2013-04-29 12:49:00,
2013-04-29 07:54:00,40.9,33.9,27.78,WNW,301,0.0,0.0,76,0.00,,---,0.00,VWS V14.01,2013-04-29 12:54:00,
2013-04-29 07:59:00,41.7,33.3,27.78,WNW,301,0.0,2.0,72,0.00,,---,0.00,VWS V14.01,2013-04-29 12:59:00,
2013-04-29 08:04:00,42.7,33.2,27.78,WNW,302,0.0,1.0,69,0.00,,---,0.00,VWS V14.01,2013-04-29 13:04:00,
2013-04-29 08:09:00,43.3,32.7,27.78,NW,304,0.0,3.0,66,0.00,,---,0.00,VWS V14.01,2013-04-29 13:09:00,
2013-04-29 08:14:00,43.6,32.6,27.78,NW,315,0.0,3.0,65,0.00,,---,0.00,VWS V14.01,2013-04-29 13:14:00,
2013-04-29 08:19:00,43.8,33.2,27.78,NNE,15,4.0,6.0,66,0.00,,---,0.00,VWS V14.01,2013-04-29 13:19:00,
2013-04-29 08:25:00,43.4,32.0,27.78,NNE,19,0.0,2.0,64,0.00,,---,0.00,VWS V14.01,2013-04-29 13:25:00,
2013-04-29 08:30:00,43.3,32.3,27.78,North,349,5.0,6.0,65,0.00,,---,0.00,VWS V14.01,2013-04-29 13:30:00,
2013-04-29 08:35:00,43.4,32.4,27.78,North,9,5.0,8.0,65,0.00,,---,0.00,VWS V14.01,2013-04-29 13:35:00,
2013-04-29 08:40:00,43.3,32.0,27.78,North,5,4.0,5.0,64,0.00,,---,0.00,VWS V14.01,2013-04-29 13:40:00,
2013-04-29 08:45:00,43.6,32.2,27.78,North,355,1.0,4.0,64,0.00,,---,0.00,VWS V14.01,2013-04-29 13:45:00,
2013-04-29 08:50:00,43.9,32.1,27.78,North,5,1.0,3.0,63,0.00,,---,0.00,VWS V14.01,2013-04-29 13:50:00,
2013-04-29 08:56:00,43.8,32.4,27.78,NNW,332,0.0,1.0,64,0.00,,---,0.00,VWS V14.01,2013-04-29 13:56:00,
2013-04-29 09:01:00,44.1,32.3,27.78,NNW,342,2.0,2.0,63,0.00,,---,0.00,VWS V14.01,2013-04-29 14:01:00,
2013-04-29 09:06:00,44.5,32.3,27.78,NE,46,1.0,4.0,62,0.00,,---,0.00,VWS V14.01,2013-04-29 14:06:00,
2013-04-29 09:11:00,45.2,33.4,27.78,ENE,57,0.0,1.0,63,0.00,,---,0.00,VWS V14.01,2013-04-29 14:11:00,
2013-04-29 09:16:00,45.5,33.2,27.77,NE,53,0.0,1.0,62,0.00,,---,0.00,VWS V14.01,2013-04-29 14:16:00,
2013-04-29 09:22:00,46.4,32.9,27.77,NE,38,4.0,4.0,59,0.00,,---,0.00,VWS V14.01,2013-04-29 14:22:00,
2013-04-29 09:27:00,46.6,33.5,27.77,NE,37,2.0,2.0,60,0.00,,---,0.00,VWS V14.01,2013-04-29 14:27:00,
2013-04-29 09:32:00,47.3,33.3,27.77,NE,37,0.0,1.0,58,0.00,,---,0.00,VWS V14.01,2013-04-29 14:32:00,
2013-04-29 09:37:00,47.3,32.8,27.77,NNE,19,3.0,5.0,57,0.00,,---,0.00,VWS V14.01,2013-04-29 14:37:00,
2013-04-29 09:42:00,47.8,33.3,27.77,NNE,17,1.0,3.0,57,0.00,,---,0.00,VWS V14.01,2013-04-29 14:42:00,
2013-04-29 09:48:00,48.2,33.7,27.77,NNE,13,1.0,1.0,57,0.00,,---,0.00,VWS V14.01,2013-04-29 14:48:00,
2013-04-29 09:53:00,48.9,33.5,27.77,NNE,15,1.0,1.0,55,0.00,,---,0.00,VWS V14.01,2013-04-29 14:53:00,
2013-04-29 09:58:00,49.9,33.9,27.77,NNE,15,1.0,1.0,54,0.00,,---,0.00,VWS V14.01,2013-04-29 14:58:00,
2013-04-29 10:03:00,49.8,33.4,27.76,ENE,58,1.0,3.0,53,0.00,,---,0.00,VWS V14.01,2013-04-29 15:03:00,
2013-04-29 10:09:00,50.0,33.6,27.76,NNW,342,5.0,6.0,53,0.00,,---,0.00,VWS V14.01,2013-04-29 15:09:00,
2013-04-29 10:14:00,49.9,33.5,27.76,NNE,13,0.0,2.0,53,0.00,,---,0.00,VWS V14.01,2013-04-29 15:14:00,
2013-04-29 10:19:00,50.0,34.0,27.76,North,5,3.0,4.0,54,0.00,,---,0.00,VWS V14.01,2013-04-29 15:19:00,
2013-04-29 10:24:00,50.0,33.1,27.76,North,355,1.0,3.0,52,0.00,,---,0.00,VWS V14.01,2013-04-29 15:24:00,
2013-04-29 10:29:00,50.5,33.5,27.76,North,5,4.0,4.0,52,0.00,,---,0.00,VWS V14.01,2013-04-29 15:29:00,
2013-04-29 10:34:00,50.4,33.9,27.77,NNW,345,0.0,2.0,53,0.00,,---,0.00,VWS V14.01,2013-04-29 15:34:00,
2013-04-29 10:40:00,50.9,33.9,27.77,North,5,0.0,2.0,52,0.00,,---,0.00,VWS V14.01,2013-04-29 15:40:00,
2013-04-29 10:45:00,51.6,34.6,27.76,NNE,29,1.0,3.0,52,0.00,,---,0.00,VWS V14.01,2013-04-29 15:45:00,
2013-04-29 10:50:00,51.9,34.4,27.76,East,86,1.0,3.0,51,0.00,,---,0.00,VWS V14.01,2013-04-29 15:50:00,
2013-04-29 10:55:00,52.4,34.8,27.76,ENE,60,1.0,4.0,51,0.00,,---,0.00,VWS V14.01,2013-04-29 15:55:00,
2013-04-29 11:00:00,52.3,34.7,27.77,NNE,32,1.0,4.0,51,0.00,,---,0.00,VWS V14.01,2013-04-29 16:00:00,
2013-04-29 11:05:00,52.4,34.3,27.77,NNE,23,1.0,5.0,50,0.00,,---,0.00,VWS V14.01,2013-04-29 16:05:00,
2013-04-29 11:11:00,53.2,35.1,27.77,NNW,328,0.0,0.0,50,0.00,,---,0.00,VWS V14.01,2013-04-29 16:11:00,
2013-04-29 11:16:00,54.8,35.0,27.76,NNW,336,0.0,1.0,47,0.00,,---,0.00,VWS V14.01,2013-04-29 16:16:00,
2013-04-29 11:21:00,56.5,34.3,27.76,NNW,336,1.0,1.0,43,0.00,,---,0.00,VWS V14.01,2013-04-29 16:21:00,
2013-04-29 11:26:00,56.0,32.0,27.76,NE,35,2.0,4.0,40,0.00,,---,0.00,VWS V14.01,2013-04-29 16:26:00,
2013-04-29 11:31:00,55.1,30.6,27.76,NNE,24,0.0,0.0,39,0.00,,---,0.00,VWS V14.01,2013-04-29 16:31:00,
2013-04-29 11:37:00,56.4,31.8,27.76,NNE,24,0.0,1.0,39,0.00,,---,0.00,VWS V14.01,2013-04-29 16:37:00,
2013-04-29 11:42:00,56.8,32.1,27.76,NNE,24,0.0,1.0,39,0.00,,---,0.00,VWS V14.01,2013-04-29 16:42:00,
2013-04-29 11:47:00,57.7,32.9,27.75,NE,40,3.0,3.0,39,0.00,,---,0.00,VWS V14.01,2013-04-29 16:47:00,
2013-04-29 11:52:00,56.9,32.2,27.75,ESE,118,2.0,5.0,39,0.00,,---,0.00,VWS V14.01,2013-04-29 16:52:00,
2013-04-29 11:57:00,56.1,31.5,27.75,ENE,62,3.0,3.0,39,0.00,,---,0.00,VWS V14.01,2013-04-29 16:57:00,
2013-04-29 12:03:00,56.9,32.8,27.74,East,86,0.0,2.0,40,0.00,,---,0.00,VWS V14.01,2013-04-29 17:03:00,
2013-04-29 12:08:00,58.4,33.6,27.74,ENE,74,0.0,1.0,39,0.00,,---,0.00,VWS V14.01,2013-04-29 17:08:00,
2013-04-29 12:13:00,58.9,32.7,27.74,ENE,74,3.0,3.0,37,0.00,,---,0.00,VWS V14.01,2013-04-29 17:13:00,
2013-04-29 12:18:00,59.0,32.1,27.73,East,90,1.0,2.0,36,0.00,,---,0.00,VWS V14.01,2013-04-29 17:18:00,
2013-04-29 12:23:00,59.0,32.8,27.73,West,268,4.0,6.0,37,0.00,,---,0.00,VWS V14.01,2013-04-29 17:23:00,
2013-04-29 12:29:00,58.1,30.6,27.73,West,277,0.0,0.0,35,0.00,,---,0.00,VWS V14.01,2013-04-29 17:29:00,
2013-04-29 12:34:00,58.0,32.6,27.72,North,360,3.0,3.0,38,0.00,,---,0.00,VWS V14.01,2013-04-29 17:34:00,
2013-04-29 12:39:00,57.6,32.2,27.72,NNW,346,1.0,2.0,38,0.00,,---,0.00,VWS V14.01,2013-04-29 17:39:00,
2013-04-29 12:44:00,57.9,32.5,27.72,North,5,1.0,3.0,38,0.00,,---,0.00,VWS V14.01,2013-04-29 17:44:00,
2013-04-29 12:50:00,58.7,33.2,27.72,North,5,0.0,2.0,38,0.00,,---,0.00,VWS V14.01,2013-04-29 17:50:00,
2013-04-29 12:55:00,60.4,32.7,27.72,SSE,155,0.0,0.0,35,0.00,,---,0.00,VWS V14.01,2013-04-29 17:55:00,
2013-04-29 13:00:00,61.2,31.1,27.72,SSW,196,3.0,6.0,32,0.00,,---,0.00,VWS V14.01,2013-04-29 18:00:00,
2013-04-29 13:05:00,61.5,30.6,27.72,SSW,209,2.0,6.0,31,0.00,,---,0.00,VWS V14.01,2013-04-29 18:05:00,
2013-04-29 13:10:00,61.0,31.0,27.72,South,176,2.0,4.0,32,0.00,,---,0.00,VWS V14.01,2013-04-29 18:10:00,
2013-04-29 13:16:00,60.8,30.8,27.72,SW,224,6.0,6.0,32,0.00,,---,0.00,VWS V14.01,2013-04-29 18:16:00,
2013-04-29 13:21:00,61.6,31.5,27.72,SW,231,1.0,3.0,32,0.00,,---,0.00,VWS V14.01,2013-04-29 18:21:00,
2013-04-29 13:26:00,62.5,31.5,27.72,SSW,207,5.0,5.0,31,0.00,,---,0.00,VWS V14.01,2013-04-29 18:26:00,
2013-04-29 13:31:00,61.7,33.8,27.72,SSE,159,0.0,2.0,35,0.00,,---,0.00,VWS V14.01,2013-04-29 18:31:00,
2013-04-29 13:36:00,60.6,32.8,27.72,South,176,4.0,8.0,35,0.00,,---,0.00,VWS V14.01,2013-04-29 18:36:00,
2013-04-29 13:41:00,59.7,32.7,27.72,South,185,5.0,8.0,36,0.00,,---,0.00,VWS V14.01,2013-04-29 18:41:00,
2013-04-29 13:46:00,59.0,33.5,27.72,South,170,1.0,6.0,38,0.00,,---,0.00,VWS V14.01,2013-04-29 18:46:00,
2013-04-29 13:51:00,59.2,33.0,27.72,South,180,6.0,7.0,37,0.00,,---,0.00,VWS V14.01,2013-04-29 18:51:00,
2013-04-29 13:57:00,59.5,33.2,27.72,South,172,3.0,5.0,37,0.00,,---,0.00,VWS V14.01,2013-04-29 18:57:00,
2013-04-29 14:02:00,59.7,32.7,27.72,SSE,166,3.0,3.0,36,0.00,,---,0.00,VWS V14.01,2013-04-29 19:02:00,
2013-04-29 14:07:00,59.7,32.7,27.72,South,186,1.0,5.0,36,0.00,,---,0.00,VWS V14.01,2013-04-29 19:07:00,
2013-04-29 14:12:00,60.2,32.5,27.72,South,172,3.0,4.0,35,0.00,,---,0.00,VWS V14.01,2013-04-29 19:12:00,
2013-04-29 14:17:00,60.2,33.2,27.72,South,186,3.0,3.0,36,0.00,,---,0.00,VWS V14.01,2013-04-29 19:17:00,
2013-04-29 14:23:00,60.3,33.3,27.72,SW,235,2.0,7.0,36,0.00,,---,0.00,VWS V14.01,2013-04-29 19:23:00,
2013-04-29 14:28:00,60.5,33.4,27.72,SSW,195,5.0,5.0,36,0.00,,---,0.00,VWS V14.01,2013-04-29 19:28:00,
2013-04-29 14:33:00,60.3,32.6,27.72,South,172,2.0,4.0,35,0.00,,---,0.00,VWS V14.01,2013-04-29 19:33:00,
2013-04-29 14:38:00,60.3,33.3,27.72,WSW,257,2.0,4.0,36,0.00,,---,0.00,VWS V14.01,2013-04-29 19:38:00,
2013-04-29 14:43:00,59.8,32.1,27.72,SSW,203,4.0,7.0,35,0.00,,---,0.00,VWS V14.01,2013-04-29 19:43:00,
2013-04-29 14:48:00,60.0,33.7,27.72,South,172,3.0,3.0,37,0.00,,---,0.00,VWS V14.01,2013-04-29 19:48:00,
2013-04-29 14:54:00,60.2,33.8,27.72,South,186,4.0,6.0,37,0.00,,---,0.00,VWS V14.01,2013-04-29 19:54:00,
2013-04-29 14:59:00,59.7,34.1,27.72,SSE,165,1.0,3.0,38,0.00,,---,0.00,VWS V14.01,2013-04-29 19:59:00,
2013-04-29 15:04:00,59.6,34.0,27.71,SSE,161,0.0,7.0,38,0.00,,---,0.00,VWS V14.01,2013-04-29 20:04:00,
2013-04-29 15:09:00,60.1,33.8,27.71,South,170,2.0,4.0,37,0.00,,---,0.00,VWS V14.01,2013-04-29 20:09:00,
2013-04-29 15:14:00,60.7,34.3,27.71,South,181,1.0,1.0,37,0.00,,---,0.00,VWS V14.01,2013-04-29 20:14:00,
2013-04-29 15:20:00,61.3,34.1,27.71,SE,143,1.0,2.0,36,0.00,,---,0.00,VWS V14.01,2013-04-29 20:20:00,
2013-04-29 15:25:00,61.2,34.1,27.71,SSW,210,1.0,3.0,36,0.00,,---,0.00,VWS V14.01,2013-04-29 20:25:00,
2013-04-29 15:30:00,61.0,34.6,27.70,South,171,4.0,4.0,37,0.00,,---,0.00,VWS V14.01,2013-04-29 20:30:00,
2013-04-29 15:35:00,60.5,33.4,27.70,South,187,0.0,5.0,36,0.00,,---,0.00,VWS V14.01,2013-04-29 20:35:00,
2013-04-29 15:40:00,60.3,33.3,27.70,SW,225,2.0,3.0,36,0.00,,---,0.00,VWS V14.01,2013-04-29 20:40:00,
2013-04-29 15:46:00,60.2,33.2,27.70,SSE,167,3.0,4.0,36,0.00,,---,0.00,VWS V14.01,2013-04-29 20:46:00,
2013-04-29 15:51:00,60.2,32.5,27.70,SSW,198,4.0,5.0,35,0.00,,---,0.00,VWS V14.01,2013-04-29 20:51:00,
2013-04-29 15:56:00,60.3,33.3,27.70,East,95,5.0,5.0,36,0.00,,---,0.00,VWS V14.01,2013-04-29 20:56:00,
2013-04-29 16:01:00,60.7,33.6,27.69,SSE,153,3.0,5.0,36,0.00,,---,0.00,VWS V14.01,2013-04-29 21:01:00,
2013-04-29 16:06:00,60.3,33.3,27.69,SW,215,1.0,2.0,36,0.00,,---,0.00,VWS V14.01,2013-04-29 21:06:00,
2013-04-29 16:12:00,60.4,34.0,27.69,South,177,0.0,1.0,37,0.00,,---,0.00,VWS V14.01,2013-04-29 21:12:00,
2013-04-29 16:17:00,60.6,34.2,27.68,SSE,166,3.0,4.0,37,0.00,,---,0.00,VWS V14.01,2013-04-29 21:17:00,
2013-04-29 16:22:00,60.2,33.8,27.68,SSE,158,1.0,6.0,37,0.00,,---,0.00,VWS V14.01,2013-04-29 21:22:00,
2013-04-29 16:27:00,60.0,33.7,27.68,South,173,3.0,8.0,37,0.00,,---,0.00,VWS V14.01,2013-04-29 21:27:00,
2013-04-29 16:32:00,60.0,33.7,27.68,South,169,4.0,6.0,37,0.00,,---,0.00,VWS V14.01,2013-04-29 21:32:00,
2013-04-29 16:38:00,59.6,33.3,27.68,South,183,0.0,1.0,37,0.00,,---,0.00,VWS V14.01,2013-04-29 21:38:00,
2013-04-29 16:43:00,59.6,33.3,27.68,South,175,2.0,3.0,37,0.00,,---,0.00,VWS V14.01,2013-04-29 21:43:00,
2013-04-29 16:48:00,59.0,32.8,27.68,SSW,210,3.0,6.0,37,0.00,,---,0.00,VWS V14.01,2013-04-29 21:48:00,
2013-04-29 16:53:00,59.0,32.8,27.68,SSE,163,2.0,3.0,37,0.00,,---,0.00,VWS V14.01,2013-04-29 21:53:00,
2013-04-29 16:58:00,59.0,33.5,27.68,South,173,1.0,4.0,38,0.00,,---,0.00,VWS V14.01,2013-04-29 21:58:00,
2013-04-29 17:03:00,59.3,33.7,27.68,South,173,2.0,3.0,38,0.00,,---,0.00,VWS V14.01,2013-04-29 22:03:00,
2013-04-29 17:09:00,59.0,32.8,27.68,SSW,211,2.0,2.0,37,0.00,,---,0.00,VWS V14.01,2013-04-29 22:09:00,
2013-04-29 17:14:00,59.0,33.5,27.68,South,172,6.0,8.0,38,0.00,,---,0.00,VWS V14.01,2013-04-29 22:14:00,
2013-04-29 17:19:00,58.6,31.8,27.68,SSE,167,2.0,5.0,36,0.00,,---,0.00,VWS V14.01,2013-04-29 22:19:00,
2013-04-29 17:24:00,58.5,31.7,27.68,SE,134,3.0,6.0,36,0.00,,---,0.00,VWS V14.01,2013-04-29 22:24:00,
2013-04-29 17:29:00,58.0,31.2,27.68,South,175,4.0,6.0,36,0.00,,---,0.00,VWS V14.01,2013-04-29 22:29:00,
2013-04-29 17:34:00,57.5,31.5,27.68,SE,146,5.0,5.0,37,0.00,,---,0.00,VWS V14.01,2013-04-29 22:34:00,
2013-04-29 17:39:00,57.4,30.7,27.68,SSW,210,3.0,6.0,36,0.00,,---,0.00,VWS V14.01,2013-04-29 22:39:00,
2013-04-29 17:44:00,57.5,30.1,27.67,SSE,161,2.0,4.0,35,0.00,,---,0.00,VWS V14.01,2013-04-29 22:44:00,
2013-04-29 17:50:00,57.2,30.5,27.67,South,177,1.0,2.0,36,0.00,,---,0.00,VWS V14.01,2013-04-29 22:50:00,
2013-04-29 17:55:00,57.2,29.8,27.67,SE,145,3.0,3.0,35,0.00,,---,0.00,VWS V14.01,2013-04-29 22:55:00,
2013-04-29 18:00:00,57.2,30.5,27.67,South,182,0.0,7.0,36,0.00,,---,0.00,VWS V14.01,2013-04-29 23:00:00,
2013-04-29 18:05:00,57.3,30.6,27.67,SSE,152,2.0,4.0,36,0.00,,---,0.00,VWS V14.01,2013-04-29 23:05:00,
2013-04-29 18:10:00,56.8,30.8,27.67,SSE,163,1.0,1.0,37,0.00,,---,0.00,VWS V14.01,2013-04-29 23:10:00,
2013-04-29 18:16:00,56.5,31.2,27.67,South,169,6.0,6.0,38,0.00,,---,0.00,VWS V14.01,2013-04-29 23:16:00,
2013-04-29 18:21:00,56.4,30.5,27.67,SSE,166,5.0,5.0,37,0.00,,---,0.00,VWS V14.01,2013-04-29 23:21:00,
2013-04-29 18:26:00,56.1,30.9,27.67,SSE,157,3.0,6.0,38,0.00,,---,0.00,VWS V14.01,2013-04-29 23:26:00,
2013-04-29 18:31:00,55.9,31.3,27.68,SSE,158,6.0,8.0,39,0.00,,---,0.00,VWS V14.01,2013-04-29 23:31:00,
2013-04-29 18:36:00,55.5,31.6,27.68,SE,128,8.0,8.0,40,0.00,,---,0.00,VWS V14.01,2013-04-29 23:36:00,
2013-04-29 18:41:00,55.3,32.0,27.68,South,181,4.0,4.0,41,0.00,,---,0.00,VWS V14.01,2013-04-29 23:41:00,
2013-04-29 18:46:00,55.0,32.3,27.68,SE,146,2.0,6.0,42,0.00,,---,0.00,VWS V14.01,2013-04-29 23:46:00,
2013-04-29 18:51:00,54.7,32.7,27.68,SSE,162,0.0,5.0,43,0.00,,---,0.00,VWS V14.01,2013-04-29 23:51:00,
2013-04-29 18:56:00,54.5,32.5,27.68,SSE,161,0.0,0.0,43,0.00,,---,0.00,VWS V14.01,2013-04-29 23:56:00,
2013-04-29 19:02:00,54.5,33.0,27.68,SSE,161,0.0,1.0,44,0.00,,---,0.00,VWS V14.01,2013-04-30 00:02:00,
2013-04-29 19:07:00,54.6,33.1,27.68,SSE,161,1.0,2.0,44,0.00,,---,0.00,VWS V14.01,2013-04-30 00:07:00,
2013-04-29 19:12:00,54.4,33.5,27.68,SSE,155,3.0,3.0,45,0.00,,---,0.00,VWS V14.01,2013-04-30 00:12:00,
2013-04-29 19:17:00,54.1,33.2,27.67,SSE,155,3.0,3.0,45,0.00,,---,0.00,VWS V14.01,2013-04-30 00:17:00,
2013-04-29 19:22:00,53.6,33.3,27.67,SSE,162,2.0,4.0,46,0.00,,---,0.00,VWS V14.01,2013-04-30 00:22:00,
2013-04-29 19:28:00,53.1,33.4,27.67,SSE,159,3.0,5.0,47,0.00,,---,0.00,VWS V14.01,2013-04-30 00:28:00,
2013-04-29 19:33:00,52.6,33.0,27.67,SSE,165,4.0,4.0,47,0.00,,---,0.00,VWS V14.01,2013-04-30 00:33:00,
2013-04-29 19:38:00,52.1,33.5,27.67,SSE,164,1.0,3.0,49,0.00,,---,0.00,VWS V14.01,2013-04-30 00:38:00,
2013-04-29 19:43:00,51.7,33.7,27.67,SSE,164,0.0,1.0,50,0.00,,---,0.00,VWS V14.01,2013-04-30 00:43:00,
2013-04-29 19:48:00,51.3,33.8,27.67,SSE,164,2.0,2.0,51,0.00,,---,0.00,VWS V14.01,2013-04-30 00:48:00,
2013-04-29 19:54:00,51.0,34.0,27.67,SSE,164,0.0,0.0,52,0.00,,---,0.00,VWS V14.01,2013-04-30 00:54:00,
2013-04-29 19:59:00,50.6,34.1,27.67,SSE,164,0.0,1.0,53,0.00,,---,0.00,VWS V14.01,2013-04-30 00:59:00,
2013-04-29 20:04:00,50.1,34.1,27.67,SSE,148,2.0,5.0,54,0.00,,---,0.00,VWS V14.01,2013-04-30 01:04:00,
2013-04-29 20:09:00,49.7,34.2,27.67,SSE,147,0.0,3.0,55,0.00,,---,0.00,VWS V14.01,2013-04-30 01:09:00,
2013-04-29 20:14:00,49.4,34.4,27.67,SSE,150,0.0,4.0,56,0.00,,---,0.00,VWS V14.01,2013-04-30 01:14:00,
2013-04-29 20:20:00,49.1,34.5,27.68,SSE,162,0.0,3.0,57,0.00,,---,0.00,VWS V14.01,2013-04-30 01:20:00,
2013-04-29 20:25:00,48.7,34.6,27.68,SSE,162,0.0,2.0,58,0.00,,---,0.00,VWS V14.01,2013-04-30 01:25:00,
2013-04-29 20:30:00,48.5,34.8,27.68,SSE,159,1.0,5.0,59,0.00,,---,0.00,VWS V14.01,2013-04-30 01:30:00,
2013-04-29 20:35:00,48.1,34.9,27.68,SSE,162,2.0,3.0,60,0.00,,---,0.00,VWS V14.01,2013-04-30 01:35:00,
2013-04-29 20:40:00,47.8,35.0,27.68,SSE,167,0.0,4.0,61,0.00,,---,0.00,VWS V14.01,2013-04-30 01:40:00,
2013-04-29 20:45:00,47.7,35.3,27.68,SE,128,4.0,4.0,62,0.00,,---,0.00,VWS V14.01,2013-04-30 01:45:00,
2013-04-29 20:50:00,47.7,35.3,27.68,SE,136,2.0,3.0,62,0.00,,---,0.00,VWS V14.01,2013-04-30 01:50:00,
2013-04-29 20:55:00,47.5,35.5,27.68,SE,140,2.0,2.0,63,0.00,,---,0.00,VWS V14.01,2013-04-30 01:55:00,
2013-04-29 21:01:00,47.5,35.5,27.67,SE,145,2.0,3.0,63,0.00,,---,0.00,VWS V14.01,2013-04-30 02:01:00,
2013-04-29 21:06:00,47.6,36.0,27.67,SE,140,1.0,4.0,64,0.00,,---,0.00,VWS V14.01,2013-04-30 02:06:00,
2013-04-29 21:11:00,47.6,36.4,27.67,SSE,149,1.0,3.0,65,0.00,,---,0.00,VWS V14.01,2013-04-30 02:11:00,
2013-04-29 21:16:00,47.5,36.7,27.68,SE,142,2.0,6.0,66,0.00,,---,0.00,VWS V14.01,2013-04-30 02:16:00,
2013-04-29 21:21:00,47.4,37.0,27.68,SE,129,1.0,6.0,67,0.00,,---,0.00,VWS V14.01,2013-04-30 02:21:00,
2013-04-29 21:26:00,47.3,36.9,27.68,SE,135,2.0,4.0,67,0.00,,---,0.00,VWS V14.01,2013-04-30 02:26:00,
2013-04-29 21:32:00,47.1,37.1,27.68,SE,142,0.0,2.0,68,0.00,,---,0.00,VWS V14.01,2013-04-30 02:32:00,
2013-04-29 21:37:00,46.8,37.2,27.68,SSE,149,0.0,2.0,69,0.00,,---,0.00,VWS V14.01,2013-04-30 02:37:00,
2013-04-29 21:42:00,46.5,37.6,27.68,SSE,167,2.0,5.0,71,0.00,,---,0.00,VWS V14.01,2013-04-30 02:42:00,
2013-04-29 21:47:00,46.4,37.9,27.68,SE,130,0.0,4.0,72,0.00,,---,0.00,VWS V14.01,2013-04-30 02:47:00,
2013-04-29 21:52:00,46.2,38.0,27.68,SSE,155,8.0,8.0,73,0.00,,---,0.00,VWS V14.01,2013-04-30 02:52:00,
2013-04-29 21:57:00,46.3,38.8,27.68,SE,134,2.0,4.0,75,0.00,,---,0.00,VWS V14.01,2013-04-30 02:57:00,
2013-04-29 22:02:00,46.2,38.7,27.68,SE,131,1.0,5.0,75,0.00,,---,0.00,VWS V14.01,2013-04-30 03:02:00,
2013-04-29 22:07:00,46.0,38.9,27.68,SE,141,3.0,4.0,76,0.00,,---,0.00,VWS V14.01,2013-04-30 03:07:00,
2013-04-29 22:13:00,46.1,39.3,27.68,SSE,155,1.0,2.0,77,0.00,,---,0.00,VWS V14.01,2013-04-30 03:13:00,
2013-04-29 22:18:00,46.2,39.7,27.67,SE,128,3.0,6.0,78,0.00,,---,0.00,VWS V14.01,2013-04-30 03:18:00,
2013-04-29 22:23:00,46.3,39.8,27.67,SSE,151,2.0,3.0,78,0.00,,---,0.00,VWS V14.01,2013-04-30 03:23:00,
2013-04-29 22:28:00,46.2,40.1,27.67,SSE,162,3.0,9.0,79,0.00,,---,0.00,VWS V14.01,2013-04-30 03:28:00,
2013-04-29 22:33:00,46.1,40.0,27.67,SE,146,4.0,4.0,79,0.00,,---,0.00,VWS V14.01,2013-04-30 03:33:00,
2013-04-29 22:38:00,45.9,40.4,27.67,SSE,160,2.0,5.0,81,0.00,,---,0.00,VWS V14.01,2013-04-30 03:38:00,
2013-04-29 22:43:00,45.8,40.3,27.67,SSE,156,3.0,5.0,81,0.00,,---,0.00,VWS V14.01,2013-04-30 03:43:00,
2013-04-29 22:48:00,45.8,40.6,27.67,SSE,155,7.0,7.0,82,0.00,,---,0.00,VWS V14.01,2013-04-30 03:48:00,
2013-04-29 22:53:00,46.0,41.1,27.67,SSE,148,3.0,5.0,83,0.00,,---,0.00,VWS V14.01,2013-04-30 03:53:00,
2013-04-29 22:59:00,46.3,41.7,27.67,SSE,147,4.0,4.0,84,0.00,,---,0.00,VWS V14.01,2013-04-30 03:59:00,
2013-04-29 23:01:00,46.4,41.8,27.66,SE,131,5.0,5.0,84,0.00,,---,0.00,VWS V14.01,2013-04-30 04:01:00,
2013-04-29 23:02:00,46.4,41.8,27.66,SE,142,3.0,4.0,84,0.00,,---,0.00,VWS V14.01,2013-04-30 04:02:00,
2013-04-29 23:03:00,46.5,41.9,27.66,ESE,118,4.0,4.0,84,0.00,,---,0.00,VWS V14.01,2013-04-30 04:03:00,
2013-04-29 23:08:00,46.8,42.2,27.66,SSE,157,1.0,5.0,84,0.00,,---,0.00,VWS V14.01,2013-04-30 04:08:00,
2013-04-29 23:13:00,46.8,42.2,27.66,SE,134,2.0,5.0,84,0.00,,---,0.00,VWS V14.01,2013-04-30 04:13:00,
2013-04-29 23:18:00,46.9,42.6,27.66,SSE,148,7.0,7.0,85,0.00,,---,0.00,VWS V14.01,2013-04-30 04:18:00,
2013-04-29 23:23:00,46.9,42.3,27.66,SE,142,1.0,4.0,84,0.00,,---,0.00,VWS V14.01,2013-04-30 04:23:00,
2013-04-29 23:28:00,46.7,42.4,27.66,SE,139,2.0,4.0,85,0.00,,---,0.00,VWS V14.01,2013-04-30 04:28:00,
2013-04-29 23:33:00,46.5,42.2,27.66,SE,138,2.0,4.0,85,0.00,,---,0.00,VWS V14.01,2013-04-30 04:33:00,
2013-04-29 23:38:00,46.4,42.5,27.66,SE,139,3.0,5.0,86,0.00,,---,0.00,VWS V14.01,2013-04-30 04:38:00,
2013-04-29 23:43:00,46.4,42.5,27.66,SE,144,2.0,7.0,86,0.00,,---,0.00,VWS V14.01,2013-04-30 04:43:00,
2013-04-29 23:48:00,46.3,42.7,27.65,SE,128,2.0,4.0,87,0.00,,---,0.00,VWS V14.01,2013-04-30 04:48:00,
2013-04-29 23:53:00,46.4,42.8,27.65,SE,130,3.0,7.0,87,0.00,,---,0.00,VWS V14.01,2013-04-30 04:53:00,
2013-04-29 23:58:00,46.7,43.0,27.65,SSE,153,2.0,4.0,87,0.00,,---,0.00,VWS V14.01,2013-04-30 04:58:00,